Fayetteville, NC

1:44 PM EDT on May 28, 2017 (GMT -0400)
Fayetteville Regional-Grannis

Weather History for KFAY - July, 2013

Change the Weather History Date:

Sunday, July 7, 2013

  Actual Average Record
Temperature  
Mean Temperature 80 °F 81 °F  
Max Temperature 91 °F 91 °F 103 °F (2010)
Min Temperature 69 °F 71 °F 55 °F (1951)
Degree Days  
Heating Degree Days 0 0  
Month to date heating degree days 0 0  
Since 1 June heating degree days 0 0  
Since 1 July heating degree days 0 0  
Cooling Degree Days 15 16  
Month to date cooling degree days 104 112  
Year to date cooling degree days 748 792  
Since 1 June cooling degree days 499 508  
Growing Degree Days 30 (Base 50)    
Moisture  
Dew Point 71 °F    
Average Humidity 76    
Maximum Humidity 100    
Minimum Humidity 52    
Precipitation  
Precipitation 0.00 in 0.17 in 1.90 in (1950)
Month to date precipitation 2.73 1.17  
Year to date precipitation 24.65 21.19  
Sea Level Pressure  
Sea Level Pressure 30.14 in    
Wind  
Wind Speed 7 mph (SSW)    
Max Wind Speed 14 mph    
Max Gust Speed 21 mph    
Visibility 10 miles    
Events      
T = Trace of Precipitation, MM = Missing Value Source: NWS Daily Summary

Daily Weather History Graph

Daily Weather History Graph

Search for Another Location

Airport or City:

Trip Planner

Search our weather history database for the weather conditions in past years. The results will help you decide how hot, cold, wet, or windy it might be!

Date:

Astronomy

Jul. 07, 2013 Rise Set
Actual Time 6:08 AM EDT 8:32 PM EDT
Civil Twilight 5:38 AM EDT 9:01 PM EDT
Nautical Twilight 5:02 AM EDT 9:37 PM EDT
Astronomical Twilight 4:23 AM EDT 10:17 PM EDT
Moon 5:40 AM EDT (7/7) 7:58 PM EDT (7/7)
Length of Visible Light 15h 22m
Length of Day
14h 24m
Waning Crescent, 0% of the Moon is Illuminated
Jul 7
Waning Crescent
Jul 8
New
Jul 15
First Quarter
Jul 22
Full
Jul 29
Last Quarter

Hourly Weather History & Observations

Time (EDT) Temp. Heat Index Dew Point Humidity Pressure Visibility Wind Dir Wind Speed Gust Speed Precip Events Conditions
12:53 AM 73.0 °F - 70.0 °F 90% 30.18 in 10.0 mi South 3.5 mph - N/A   Clear
1:53 AM 73.0 °F - 70.0 °F 90% 30.17 in 10.0 mi South 3.5 mph - N/A   Clear
2:53 AM 72.0 °F - 70.0 °F 93% 30.15 in 10.0 mi SSE 3.5 mph - N/A   Clear
3:53 AM 71.1 °F - 70.0 °F 96% 30.15 in 10.0 mi Calm Calm - N/A   Clear
4:53 AM 71.1 °F - 69.1 °F 93% 30.15 in 10.0 mi Calm Calm - N/A   Clear
5:53 AM 70.0 °F - 69.1 °F 97% 30.17 in 10.0 mi SSE 3.5 mph - N/A   Clear
6:53 AM 71.1 °F - 70.0 °F 96% 30.17 in 8.0 mi Calm Calm - N/A   Clear
7:53 AM 73.9 °F - 71.1 °F 91% 30.19 in 10.0 mi SSE 3.5 mph - N/A   Clear
8:53 AM 79.0 °F - 73.0 °F 82% 30.19 in 10.0 mi South 4.6 mph - N/A   Clear
9:50 AM 82.4 °F 87.2 °F 71.6 °F 70% 30.20 in 10.0 mi SW 9.2 mph - N/A   Mostly Cloudy
9:53 AM 82.0 °F 86.7 °F 72.0 °F 71% 30.18 in 10.0 mi SSW 13.8 mph 19.6 mph N/A   Overcast
10:53 AM 84.0 °F 88.4 °F 70.0 °F 63% 30.18 in 10.0 mi SSW 10.4 mph - N/A   Overcast
11:13 AM 84.2 °F 88.4 °F 69.8 °F 62% 30.19 in 10.0 mi South 11.5 mph - N/A   Scattered Clouds
11:53 AM 86.0 °F 90.7 °F 70.0 °F 59% 30.17 in 10.0 mi SW 11.5 mph - N/A   Mostly Cloudy
12:53 PM 88.0 °F 92.1 °F 69.1 °F 53% 30.16 in 10.0 mi SW 8.1 mph - N/A   Partly Cloudy
1:53 PM 89.1 °F 93.7 °F 69.1 °F 52% 30.14 in 10.0 mi SW 9.2 mph - N/A   Clear
2:53 PM 89.1 °F 93.7 °F 69.1 °F 52% 30.12 in 10.0 mi SW 10.4 mph - N/A   Overcast
3:53 PM 90.0 °F 95.4 °F 70.0 °F 52% 30.10 in 10.0 mi South 9.2 mph - N/A   Partly Cloudy
4:53 PM 91.0 °F 97.6 °F 71.1 °F 52% 30.08 in 10.0 mi SSW 12.7 mph - N/A   Scattered Clouds
5:53 PM 88.0 °F 93.8 °F 71.1 °F 57% 30.07 in 10.0 mi South 11.5 mph - N/A   Partly Cloudy
6:53 PM 86.0 °F 92.2 °F 72.0 °F 63% 30.06 in 10.0 mi South 10.4 mph - N/A   Clear
7:53 PM 84.0 °F 90.2 °F 73.0 °F 69% 30.07 in 10.0 mi South 8.1 mph - N/A   Clear
8:53 PM 82.0 °F 86.7 °F 72.0 °F 71% 30.09 in 10.0 mi South 9.2 mph - N/A   Clear
9:53 PM 80.1 °F 83.8 °F 72.0 °F 76% 30.12 in 10.0 mi South 5.8 mph - N/A   Clear
10:53 PM 78.1 °F - 72.0 °F 81% 30.14 in 10.0 mi SSW 6.9 mph - N/A   Clear
11:53 PM 77.0 °F - 71.1 °F 82% 30.14 in 10.0 mi South 10.4 mph - N/A   Clear